Time,TemperatureF,DewpointF,PressureIn,WindDirection,WindDirectionDegrees,WindSpeedMPH,WindSpeedGustMPH,Humidity,HourlyPrecipIn,Conditions,Clouds,dailyrainin,SoftwareType,DateUTC
2013-02-03 00:01:00,59.2,53.6,30.19,NNE,26,0.0,1.0,82,0.00,,,0.00,meteohub,2013-02-03 08:01:00,
2013-02-03 00:06:00,59.0,53.8,30.19,NNE,26,0.0,1.0,83,0.00,,,0.00,meteohub,2013-02-03 08:06:00,
2013-02-03 00:11:00,58.8,53.6,30.19,NNE,26,0.0,1.0,83,0.00,,,0.00,meteohub,2013-02-03 08:11:00,
2013-02-03 00:16:00,58.8,53.6,30.19,NNE,26,0.0,1.0,83,0.00,,,0.00,meteohub,2013-02-03 08:16:00,
2013-02-03 00:21:00,58.8,53.6,30.19,NNE,26,0.0,1.0,83,0.00,,,0.00,meteohub,2013-02-03 08:21:00,
2013-02-03 00:26:00,58.8,53.6,30.19,NNE,26,0.0,1.0,83,0.00,,,0.00,meteohub,2013-02-03 08:26:00,
2013-02-03 00:31:00,58.8,54.0,30.19,NNE,26,0.0,1.0,84,0.00,,,0.00,meteohub,2013-02-03 08:31:00,
2013-02-03 00:36:00,58.8,54.0,30.19,NNE,26,0.0,1.0,84,0.00,,,0.00,meteohub,2013-02-03 08:36:00,
2013-02-03 00:41:00,58.6,54.1,30.19,NNE,26,0.0,1.0,85,0.00,,,0.00,meteohub,2013-02-03 08:41:00,
2013-02-03 00:47:00,58.6,54.1,30.19,NNE,26,0.0,1.0,85,0.00,,,0.00,meteohub,2013-02-03 08:47:00,
2013-02-03 00:52:00,58.6,54.1,30.19,NNE,26,0.0,1.0,85,0.00,,,0.00,meteohub,2013-02-03 08:52:00,
2013-02-03 00:57:00,58.5,54.0,30.19,NNE,26,0.0,0.0,85,0.00,,,0.00,meteohub,2013-02-03 08:57:00,
2013-02-03 01:02:00,58.5,54.0,30.19,NNE,26,0.0,0.0,85,0.00,,,0.00,meteohub,2013-02-03 09:02:00,
2013-02-03 01:07:00,58.3,53.1,30.19,NNE,26,0.0,0.0,83,0.00,,,0.00,meteohub,2013-02-03 09:07:00,
2013-02-03 01:12:00,58.5,53.2,30.19,NNE,26,0.0,1.0,83,0.00,,,0.00,meteohub,2013-02-03 09:12:00,
2013-02-03 01:17:00,58.8,53.4,30.19,NNE,26,0.0,1.0,82,0.00,,,0.00,meteohub,2013-02-03 09:17:00,
2013-02-03 01:22:00,59.0,53.2,30.19,NNE,26,0.0,1.0,81,0.00,,,0.00,meteohub,2013-02-03 09:22:00,
2013-02-03 01:27:00,59.2,53.1,30.19,NNE,26,0.0,1.0,80,0.00,,,0.00,meteohub,2013-02-03 09:27:00,
2013-02-03 01:32:00,59.4,52.9,30.19,NNE,26,0.0,1.0,79,0.00,,,0.00,meteohub,2013-02-03 09:32:00,
2013-02-03 01:37:00,59.5,54.0,30.19,NNE,26,0.0,1.0,82,0.00,,,0.00,meteohub,2013-02-03 09:37:00,
2013-02-03 01:42:00,59.4,53.6,30.19,NNE,26,0.0,1.0,81,0.00,,,0.00,meteohub,2013-02-03 09:42:00,
2013-02-03 01:47:00,59.2,53.4,30.19,NNE,26,0.0,1.0,81,0.00,,,0.00,meteohub,2013-02-03 09:47:00,
2013-02-03 01:52:00,59.2,54.3,30.18,NNE,26,0.0,1.0,84,0.00,,,0.00,meteohub,2013-02-03 09:52:00,
2013-02-03 01:57:00,58.8,53.1,30.18,NNE,26,1.0,2.0,81,0.00,,,0.00,meteohub,2013-02-03 09:57:00,
2013-02-03 02:02:00,59.2,53.1,30.18,NNE,26,1.0,2.0,80,0.00,,,0.00,meteohub,2013-02-03 10:02:00,
2013-02-03 02:07:00,59.5,52.7,30.17,NNE,26,0.0,3.0,78,0.00,,,0.00,meteohub,2013-02-03 10:07:00,
2013-02-03 02:12:00,60.1,52.9,30.18,NNE,26,0.0,3.0,77,0.00,,,0.00,meteohub,2013-02-03 10:12:00,
2013-02-03 02:17:00,60.3,53.1,30.17,NNE,26,0.0,3.0,77,0.00,,,0.00,meteohub,2013-02-03 10:17:00,
2013-02-03 02:22:00,60.3,52.7,30.17,NNE,26,0.0,3.0,76,0.00,,,0.00,meteohub,2013-02-03 10:22:00,
2013-02-03 02:27:00,60.4,52.2,30.17,NNE,26,0.0,2.0,74,0.00,,,0.00,meteohub,2013-02-03 10:27:00,
2013-02-03 02:32:00,60.8,52.2,30.17,NNE,26,2.0,2.0,73,0.00,,,0.00,meteohub,2013-02-03 10:32:00,
2013-02-03 02:37:00,61.0,51.4,30.17,NNE,26,0.0,2.0,71,0.00,,,0.00,meteohub,2013-02-03 10:37:00,
2013-02-03 02:42:00,61.2,54.9,30.17,NNE,26,0.0,3.0,80,0.00,,,0.00,meteohub,2013-02-03 10:42:00,
2013-02-03 02:47:00,60.8,54.7,30.17,NNE,26,0.0,3.0,80,0.00,,,0.00,meteohub,2013-02-03 10:47:00,
2013-02-03 02:52:00,60.4,54.3,30.17,NNE,26,0.0,3.0,80,0.00,,,0.00,meteohub,2013-02-03 10:52:00,
2013-02-03 02:57:00,60.3,54.1,30.17,NNE,26,0.0,1.0,80,0.00,,,0.00,meteohub,2013-02-03 10:57:00,
2013-02-03 03:02:00,60.1,54.3,30.17,NNE,26,0.0,1.0,81,0.00,,,0.00,meteohub,2013-02-03 11:02:00,
2013-02-03 03:07:00,60.1,54.5,30.17,NNE,26,0.0,1.0,82,0.00,,,0.00,meteohub,2013-02-03 11:07:00,
2013-02-03 03:12:00,59.7,54.5,30.17,NNE,26,0.0,0.0,83,0.00,,,0.00,meteohub,2013-02-03 11:12:00,
2013-02-03 03:17:00,59.5,54.3,30.17,NNE,26,0.0,0.0,83,0.00,,,0.00,meteohub,2013-02-03 11:17:00,
2013-02-03 03:22:00,59.5,54.3,30.17,NNE,26,0.0,0.0,83,0.00,,,0.00,meteohub,2013-02-03 11:22:00,
2013-02-03 03:27:00,59.4,54.5,30.16,NNE,26,0.0,0.0,84,0.00,,,0.00,meteohub,2013-02-03 11:27:00,
2013-02-03 03:32:00,59.2,54.3,30.16,NNE,26,0.0,0.0,84,0.00,,,0.00,meteohub,2013-02-03 11:32:00,
2013-02-03 03:37:00,59.2,54.0,30.15,NNE,26,0.0,0.0,83,0.00,,,0.00,meteohub,2013-02-03 11:37:00,
2013-02-03 03:42:00,59.0,54.5,30.15,NNE,26,0.0,0.0,85,0.00,,,0.00,meteohub,2013-02-03 11:42:00,
2013-02-03 03:47:00,58.8,54.3,30.15,NNE,26,0.0,2.0,85,0.00,,,0.00,meteohub,2013-02-03 11:47:00,
2013-02-03 03:52:00,58.8,53.6,30.15,NE,47,0.0,2.0,83,0.00,,,0.00,meteohub,2013-02-03 11:52:00,
2013-02-03 03:57:00,58.8,54.0,30.15,SSW,200,0.0,1.0,84,0.00,,,0.00,meteohub,2013-02-03 11:57:00,
2013-02-03 04:02:00,58.8,54.0,30.15,SSW,209,0.0,2.0,84,0.00,,,0.00,meteohub,2013-02-03 12:02:00,
2013-02-03 04:07:00,58.8,53.6,30.15,SSW,209,0.0,2.0,83,0.00,,,0.00,meteohub,2013-02-03 12:07:00,
2013-02-03 04:12:00,58.8,53.6,30.15,SSW,209,0.0,2.0,83,0.00,,,0.00,meteohub,2013-02-03 12:12:00,
2013-02-03 04:17:00,58.6,53.2,30.15,SSW,209,0.0,1.0,82,0.00,,,0.00,meteohub,2013-02-03 12:17:00,
2013-02-03 04:22:00,58.6,52.5,30.15,SSW,209,0.0,0.0,80,0.00,,,0.00,meteohub,2013-02-03 12:22:00,
2013-02-03 04:27:00,58.8,52.3,30.15,SSW,209,0.0,0.0,79,0.00,,,0.00,meteohub,2013-02-03 12:27:00,
2013-02-03 04:32:00,58.8,53.4,30.15,SSW,209,0.0,0.0,82,0.00,,,0.00,meteohub,2013-02-03 12:32:00,
2013-02-03 04:37:00,58.8,53.6,30.15,SSW,209,0.0,0.0,83,0.00,,,0.00,meteohub,2013-02-03 12:37:00,
2013-02-03 04:42:00,58.8,52.7,30.15,SSW,209,0.0,0.0,80,0.00,,,0.00,meteohub,2013-02-03 12:42:00,
2013-02-03 04:47:00,58.6,52.5,30.15,SSW,209,0.0,0.0,80,0.00,,,0.00,meteohub,2013-02-03 12:47:00,
2013-02-03 04:52:00,58.6,52.9,30.15,SSW,209,0.0,0.0,81,0.00,,,0.00,meteohub,2013-02-03 12:52:00,
2013-02-03 04:57:00,58.5,52.0,30.14,SSW,209,0.0,0.0,79,0.00,,,0.00,meteohub,2013-02-03 12:57:00,
2013-02-03 05:02:00,58.5,51.6,30.14,SSW,209,0.0,0.0,78,0.00,,,0.00,meteohub,2013-02-03 13:02:00,
2013-02-03 05:07:00,58.5,52.0,30.14,SSW,209,0.0,0.0,79,0.00,,,0.00,meteohub,2013-02-03 13:07:00,
2013-02-03 05:12:00,58.5,51.3,30.14,SSW,209,0.0,0.0,77,0.00,,,0.00,meteohub,2013-02-03 13:12:00,
2013-02-03 05:17:00,58.3,51.1,30.14,SSW,209,0.0,0.0,77,0.00,,,0.00,meteohub,2013-02-03 13:17:00,
2013-02-03 05:22:00,58.3,51.4,30.14,SSW,209,0.0,0.0,78,0.00,,,0.00,meteohub,2013-02-03 13:22:00,
2013-02-03 05:27:00,58.1,51.3,30.14,SSW,209,0.0,0.0,78,0.00,,,0.00,meteohub,2013-02-03 13:27:00,
2013-02-03 05:32:00,57.9,51.8,30.14,SSW,209,0.0,0.0,80,0.00,,,0.00,meteohub,2013-02-03 13:32:00,
2013-02-03 05:37:00,57.6,51.1,30.14,SSW,209,0.0,0.0,79,0.00,,,0.00,meteohub,2013-02-03 13:37:00,
2013-02-03 05:42:00,57.4,50.9,30.14,SSW,209,0.0,0.0,79,0.00,,,0.00,meteohub,2013-02-03 13:42:00,
2013-02-03 05:47:00,57.2,50.7,30.14,SSW,209,0.0,0.0,79,0.00,,,0.00,meteohub,2013-02-03 13:47:00,
2013-02-03 05:52:00,57.2,50.7,30.14,SSW,209,0.0,0.0,79,0.00,,,0.00,meteohub,2013-02-03 13:52:00,
2013-02-03 05:57:00,57.0,50.5,30.14,SSW,209,0.0,0.0,79,0.00,,,0.00,meteohub,2013-02-03 13:57:00,
2013-02-03 06:02:00,56.8,50.4,30.14,SSW,209,0.0,0.0,79,0.00,,,0.00,meteohub,2013-02-03 14:02:00,
2013-02-03 06:07:00,56.7,50.9,30.14,SSW,209,0.0,0.0,81,0.00,,,0.00,meteohub,2013-02-03 14:07:00,
2013-02-03 06:12:00,56.5,50.7,30.15,SSW,209,0.0,0.0,81,0.00,,,0.00,meteohub,2013-02-03 14:12:00,
2013-02-03 06:17:00,56.1,51.1,30.15,SSW,209,0.0,0.0,83,0.00,,,0.00,meteohub,2013-02-03 14:17:00,
2013-02-03 06:22:00,55.9,50.9,30.15,SSW,209,0.0,0.0,83,0.00,,,0.00,meteohub,2013-02-03 14:22:00,
2013-02-03 06:27:00,55.8,50.7,30.15,SSW,209,0.0,0.0,83,0.00,,,0.00,meteohub,2013-02-03 14:27:00,
2013-02-03 06:32:00,55.6,50.5,30.15,SSW,209,0.0,0.0,83,0.00,,,0.00,meteohub,2013-02-03 14:32:00,
2013-02-03 06:37:00,55.4,50.7,30.15,SSW,209,0.0,0.0,84,0.00,,,0.00,meteohub,2013-02-03 14:37:00,
2013-02-03 06:42:00,55.2,50.5,30.15,SSW,209,0.0,0.0,84,0.00,,,0.00,meteohub,2013-02-03 14:42:00,
2013-02-03 06:47:00,55.2,50.5,30.15,SSW,209,0.0,0.0,84,0.00,,,0.00,meteohub,2013-02-03 14:47:00,
2013-02-03 06:52:00,55.0,50.0,30.16,SSW,209,0.0,0.0,83,0.00,,,0.00,meteohub,2013-02-03 14:52:00,
2013-02-03 06:57:00,54.9,49.8,30.16,SSW,209,0.0,0.0,83,0.00,,,0.00,meteohub,2013-02-03 14:57:00,
2013-02-03 07:02:00,54.9,50.2,30.16,SSW,209,0.0,0.0,84,0.00,,,0.00,meteohub,2013-02-03 15:02:00,
2013-02-03 07:07:00,54.9,50.2,30.16,SSW,209,0.0,0.0,84,0.00,,,0.00,meteohub,2013-02-03 15:07:00,
2013-02-03 07:12:00,54.9,49.8,30.16,SSW,209,0.0,0.0,83,0.00,,,0.00,meteohub,2013-02-03 15:12:00,
2013-02-03 07:17:00,54.7,49.6,30.16,SSW,209,0.0,0.0,83,0.00,,,0.00,meteohub,2013-02-03 15:17:00,
2013-02-03 07:22:00,54.7,49.6,30.16,SSW,209,0.0,0.0,83,0.00,,,0.00,meteohub,2013-02-03 15:22:00,
2013-02-03 07:27:00,54.7,49.6,30.15,SSW,209,0.0,0.0,83,0.00,,,0.00,meteohub,2013-02-03 15:27:00,
2013-02-03 07:32:00,54.7,49.6,30.15,SSW,209,0.0,0.0,83,0.00,,,0.00,meteohub,2013-02-03 15:32:00,
2013-02-03 07:37:00,54.5,49.8,30.16,SSW,209,0.0,0.0,84,0.00,,,0.00,meteohub,2013-02-03 15:37:00,
2013-02-03 07:42:00,54.3,49.6,30.16,SSW,209,0.0,0.0,84,0.00,,,0.00,meteohub,2013-02-03 15:42:00,
2013-02-03 07:47:00,54.3,49.6,30.16,SSW,209,0.0,0.0,84,0.00,,,0.00,meteohub,2013-02-03 15:47:00,
2013-02-03 07:52:00,54.3,49.8,30.16,SSW,209,0.0,0.0,85,0.00,,,0.00,meteohub,2013-02-03 15:52:00,
2013-02-03 07:57:00,54.3,49.8,30.16,SSW,209,0.0,0.0,85,0.00,,,0.00,meteohub,2013-02-03 15:57:00,
2013-02-03 08:02:00,54.3,50.2,30.16,SSW,209,0.0,0.0,86,0.00,,,0.00,meteohub,2013-02-03 16:02:00,
2013-02-03 08:07:00,54.5,50.4,30.16,SSW,209,0.0,0.0,86,0.00,,,0.00,meteohub,2013-02-03 16:07:00,
2013-02-03 08:12:00,54.7,50.5,30.16,SSW,209,0.0,0.0,86,0.00,,,0.00,meteohub,2013-02-03 16:12:00,
2013-02-03 08:17:00,54.9,50.7,30.16,SSW,209,0.0,0.0,86,0.00,,,0.00,meteohub,2013-02-03 16:17:00,
2013-02-03 08:22:00,55.0,50.9,30.16,SSW,209,0.0,0.0,86,0.00,,,0.00,meteohub,2013-02-03 16:22:00,
2013-02-03 08:27:00,55.2,51.1,30.16,SSW,209,0.0,0.0,86,0.00,,,0.00,meteohub,2013-02-03 16:27:00,
2013-02-03 08:32:00,55.6,51.4,30.16,SSW,209,0.0,1.0,86,0.00,,,0.00,meteohub,2013-02-03 16:32:00,
2013-02-03 08:37:00,56.1,51.6,30.16,SSW,209,0.0,1.0,85,0.00,,,0.00,meteohub,2013-02-03 16:37:00,
2013-02-03 08:42:00,56.8,52.3,30.16,SSW,209,0.0,1.0,85,0.00,,,0.00,meteohub,2013-02-03 16:42:00,
2013-02-03 08:47:00,57.4,52.5,30.16,SSW,209,0.0,1.0,84,0.00,,,0.00,meteohub,2013-02-03 16:47:00,
2013-02-03 08:52:00,58.1,52.7,30.16,SSW,209,0.0,1.0,82,0.00,,,0.00,meteohub,2013-02-03 16:52:00,
2013-02-03 08:57:00,58.6,52.9,30.16,SSW,209,0.0,1.0,81,0.00,,,0.00,meteohub,2013-02-03 16:57:00,
2013-02-03 09:02:00,59.4,53.2,30.16,SSW,209,0.0,1.0,80,0.00,,,0.00,meteohub,2013-02-03 17:02:00,
2013-02-03 09:07:00,60.3,53.4,30.16,SSW,209,0.0,1.0,78,0.00,,,0.00,meteohub,2013-02-03 17:07:00,
2013-02-03 09:12:00,61.2,53.6,30.16,SSW,209,0.0,1.0,76,0.00,,,0.00,meteohub,2013-02-03 17:12:00,
2013-02-03 09:17:00,62.1,52.9,30.16,SSW,209,0.0,1.0,72,0.00,,,0.00,meteohub,2013-02-03 17:17:00,
2013-02-03 09:22:00,63.1,52.9,30.16,SSW,209,0.0,2.0,69,0.00,,,0.00,meteohub,2013-02-03 17:22:00,
2013-02-03 09:27:00,64.0,52.9,30.16,SSW,209,0.0,2.0,67,0.00,,,0.00,meteohub,2013-02-03 17:27:00,
2013-02-03 09:32:00,64.9,52.0,30.16,SSW,209,0.0,1.0,63,0.00,,,0.00,meteohub,2013-02-03 17:32:00,
2013-02-03 09:37:00,66.0,50.9,30.15,SSW,209,0.0,1.0,58,0.00,,,0.00,meteohub,2013-02-03 17:37:00,
2013-02-03 09:42:00,66.9,50.7,30.15,SSW,209,0.0,1.0,56,0.00,,,0.00,meteohub,2013-02-03 17:42:00,
2013-02-03 09:47:00,67.6,50.9,30.15,SSW,205,2.0,2.0,55,0.00,,,0.00,meteohub,2013-02-03 17:47:00,
2013-02-03 09:52:00,67.8,49.6,30.15,SSW,198,0.0,2.0,52,0.00,,,0.00,meteohub,2013-02-03 17:52:00,
2013-02-03 09:57:00,68.2,50.4,30.15,SSW,198,0.0,2.0,53,0.00,,,0.00,meteohub,2013-02-03 17:57:00,
2013-02-03 10:02:00,68.5,50.2,30.15,SW,215,0.0,2.0,52,0.00,,,0.00,meteohub,2013-02-03 18:02:00,
2013-02-03 10:07:00,68.9,50.0,30.15,SSW,212,1.0,2.0,51,0.00,,,0.00,meteohub,2013-02-03 18:07:00,
2013-02-03 10:12:00,69.1,50.2,30.15,SSW,212,1.0,2.0,51,0.00,,,0.00,meteohub,2013-02-03 18:12:00,
2013-02-03 10:17:00,69.4,50.5,30.16,SSW,212,0.0,1.0,51,0.00,,,0.00,meteohub,2013-02-03 18:17:00,
2013-02-03 10:22:00,69.4,50.5,30.15,SSW,212,0.0,1.0,51,0.00,,,0.00,meteohub,2013-02-03 18:22:00,
2013-02-03 10:27:00,70.0,49.5,30.16,SSW,212,0.0,1.0,48,0.00,,,0.00,meteohub,2013-02-03 18:27:00,
2013-02-03 10:32:00,70.2,50.7,30.15,SSW,212,0.0,1.0,50,0.00,,,0.00,meteohub,2013-02-03 18:32:00,
2013-02-03 10:37:00,70.3,48.6,30.15,SSW,212,0.0,1.0,46,0.00,,,0.00,meteohub,2013-02-03 18:37:00,
2013-02-03 10:42:00,70.3,48.6,30.15,SSW,212,0.0,1.0,46,0.00,,,0.00,meteohub,2013-02-03 18:42:00,
2013-02-03 10:47:00,70.5,49.8,30.15,SSW,212,0.0,1.0,48,0.00,,,0.00,meteohub,2013-02-03 18:47:00,
2013-02-03 10:52:00,70.7,48.9,30.15,SSW,212,0.0,1.0,46,0.00,,,0.00,meteohub,2013-02-03 18:52:00,
2013-02-03 10:57:00,71.1,50.4,30.15,SSW,212,0.0,1.0,48,0.00,,,0.00,meteohub,2013-02-03 18:57:00,
2013-02-03 11:02:00,71.2,50.0,30.15,SSW,212,0.0,1.0,47,0.00,,,0.00,meteohub,2013-02-03 19:02:00,
2013-02-03 11:07:00,71.6,51.4,30.14,SSW,212,0.0,1.0,49,0.00,,,0.00,meteohub,2013-02-03 19:07:00,
2013-02-03 11:12:00,71.8,50.5,30.14,SSW,212,0.0,1.0,47,0.00,,,0.00,meteohub,2013-02-03 19:12:00,
2013-02-03 11:17:00,71.8,50.5,30.14,SSW,194,0.0,6.0,47,0.00,,,0.00,meteohub,2013-02-03 19:17:00,
2013-02-03 11:22:00,71.8,51.1,30.13,SSW,194,0.0,6.0,48,0.00,,,0.00,meteohub,2013-02-03 19:22:00,
2013-02-03 11:27:00,71.8,51.1,30.13,SSW,212,0.0,6.0,48,0.00,,,0.00,meteohub,2013-02-03 19:27:00,
2013-02-03 11:32:00,71.8,50.5,30.13,South,186,0.0,3.0,47,0.00,,,0.00,meteohub,2013-02-03 19:32:00,
2013-02-03 11:37:00,71.6,50.4,30.13,SW,220,0.0,3.0,47,0.00,,,0.00,meteohub,2013-02-03 19:37:00,
2013-02-03 11:42:00,71.6,49.6,30.12,WSW,255,1.0,4.0,46,0.00,,,0.00,meteohub,2013-02-03 19:42:00,
2013-02-03 11:47:00,71.6,50.4,30.12,SW,217,0.0,4.0,47,0.00,,,0.00,meteohub,2013-02-03 19:47:00,
2013-02-03 11:52:00,71.8,51.1,30.12,SSW,192,1.0,5.0,48,0.00,,,0.00,meteohub,2013-02-03 19:52:00,
2013-02-03 11:57:00,71.8,51.1,30.12,South,173,0.0,5.0,48,0.00,,,0.00,meteohub,2013-02-03 19:57:00,
2013-02-03 12:02:00,71.8,50.5,30.11,SSW,209,0.0,5.0,47,0.00,,,0.00,meteohub,2013-02-03 20:02:00,
2013-02-03 12:07:00,72.0,51.3,30.11,SSW,210,0.0,2.0,48,0.00,,,0.00,meteohub,2013-02-03 20:07:00,
2013-02-03 12:12:00,71.8,51.1,30.11,SSW,196,0.0,4.0,48,0.00,,,0.00,meteohub,2013-02-03 20:12:00,
2013-02-03 12:17:00,72.0,50.7,30.11,SW,227,0.0,4.0,47,0.00,,,0.00,meteohub,2013-02-03 20:17:00,
2013-02-03 12:22:00,72.1,53.1,30.10,SW,227,0.0,4.0,51,0.00,,,0.00,meteohub,2013-02-03 20:22:00,
2013-02-03 12:27:00,72.1,50.7,30.10,SW,227,0.0,2.0,47,0.00,,,0.00,meteohub,2013-02-03 20:27:00,
2013-02-03 12:32:00,72.1,50.7,30.10,SW,228,0.0,2.0,47,0.00,,,0.00,meteohub,2013-02-03 20:32:00,
2013-02-03 12:37:00,72.1,50.2,30.10,SW,234,0.0,2.0,46,0.00,,,0.00,meteohub,2013-02-03 20:37:00,
2013-02-03 12:42:00,72.1,50.2,30.09,SW,234,0.0,2.0,46,0.00,,,0.00,meteohub,2013-02-03 20:42:00,
2013-02-03 12:47:00,72.1,50.2,30.09,SW,234,0.0,3.0,46,0.00,,,0.00,meteohub,2013-02-03 20:47:00,
2013-02-03 12:52:00,72.0,48.9,30.09,SW,234,0.0,3.0,44,0.00,,,0.00,meteohub,2013-02-03 20:52:00,
2013-02-03 12:57:00,72.0,49.5,30.09,SW,234,0.0,1.0,45,0.00,,,0.00,meteohub,2013-02-03 20:57:00,
2013-02-03 13:02:00,71.8,51.1,30.08,SW,234,0.0,3.0,48,0.00,,,0.00,meteohub,2013-02-03 21:02:00,
2013-02-03 13:07:00,72.0,50.0,30.08,WSW,244,0.0,3.0,46,0.00,,,0.00,meteohub,2013-02-03 21:07:00,
2013-02-03 13:12:00,72.0,50.7,30.08,WSW,243,0.0,2.0,47,0.00,,,0.00,meteohub,2013-02-03 21:12:00,
2013-02-03 13:17:00,72.1,49.6,30.08,SW,229,0.0,3.0,45,0.00,,,0.00,meteohub,2013-02-03 21:17:00,
2013-02-03 13:22:00,72.3,49.8,30.07,SSW,205,0.0,3.0,45,0.00,,,0.00,meteohub,2013-02-03 21:22:00,
2013-02-03 13:27:00,72.7,49.5,30.07,SW,222,0.0,3.0,44,0.00,,,0.00,meteohub,2013-02-03 21:27:00,
2013-02-03 13:32:00,72.9,49.1,30.07,SSW,199,2.0,3.0,43,0.00,,,0.00,meteohub,2013-02-03 21:32:00,
2013-02-03 13:37:00,72.9,48.4,30.07,SSW,211,3.0,3.0,42,0.00,,,0.00,meteohub,2013-02-03 21:37:00,
2013-02-03 13:42:00,73.0,48.6,30.07,SW,235,3.0,5.0,42,0.00,,,0.00,meteohub,2013-02-03 21:42:00,
2013-02-03 13:47:00,73.4,48.9,30.07,SSW,197,1.0,5.0,42,0.00,,,0.00,meteohub,2013-02-03 21:47:00,
2013-02-03 13:52:00,73.9,49.5,30.07,South,185,0.0,4.0,42,0.00,,,0.00,meteohub,2013-02-03 21:52:00,
2013-02-03 13:57:00,74.5,49.8,30.07,SW,223,0.0,4.0,42,0.00,,,0.00,meteohub,2013-02-03 21:57:00,
2013-02-03 14:02:00,74.5,49.8,30.07,SSW,194,0.0,4.0,42,0.00,,,0.00,meteohub,2013-02-03 22:02:00,
2013-02-03 14:07:00,74.5,48.6,30.06,SW,231,3.0,4.0,40,0.00,,,0.00,meteohub,2013-02-03 22:07:00,
2013-02-03 14:12:00,74.5,49.3,30.07,SSE,153,1.0,4.0,41,0.00,,,0.00,meteohub,2013-02-03 22:12:00,
2013-02-03 14:17:00,74.3,49.1,30.07,SSW,207,0.0,4.0,41,0.00,,,0.00,meteohub,2013-02-03 22:17:00,
2013-02-03 14:22:00,74.1,48.9,30.07,SW,221,0.0,4.0,41,0.00,,,0.00,meteohub,2013-02-03 22:22:00,
2013-02-03 14:27:00,73.9,48.7,30.07,South,169,0.0,4.0,41,0.00,,,0.00,meteohub,2013-02-03 22:27:00,
2013-02-03 14:32:00,73.8,48.6,30.07,SSW,197,1.0,6.0,41,0.00,,,0.00,meteohub,2013-02-03 22:32:00,
2013-02-03 14:37:00,73.2,48.7,30.07,SW,215,0.0,6.0,42,0.00,,,0.00,meteohub,2013-02-03 22:37:00,
2013-02-03 14:42:00,72.9,49.1,30.07,South,180,2.0,6.0,43,0.00,,,0.00,meteohub,2013-02-03 22:42:00,
2013-02-03 14:47:00,72.3,48.0,30.07,SW,219,1.0,7.0,42,0.00,,,0.00,meteohub,2013-02-03 22:47:00,
2013-02-03 14:52:00,71.8,48.7,30.07,South,191,1.0,7.0,44,0.00,,,0.00,meteohub,2013-02-03 22:52:00,
2013-02-03 14:57:00,71.1,48.6,30.07,WSW,238,2.0,7.0,45,0.00,,,0.00,meteohub,2013-02-03 22:57:00,
2013-02-03 15:02:00,70.9,49.1,30.07,SSW,210,1.0,5.0,46,0.00,,,0.00,meteohub,2013-02-03 23:02:00,
2013-02-03 15:07:00,70.9,49.1,30.07,South,175,0.0,5.0,46,0.00,,,0.00,meteohub,2013-02-03 23:07:00,
2013-02-03 15:12:00,70.5,48.7,30.08,SW,227,4.0,8.0,46,0.00,,,0.00,meteohub,2013-02-03 23:12:00,
2013-02-03 15:17:00,70.2,48.4,30.08,SSW,196,0.0,8.0,46,0.00,,,0.00,meteohub,2013-02-03 23:17:00,
2013-02-03 15:22:00,69.6,47.8,30.08,SW,232,0.0,8.0,46,0.00,,,0.00,meteohub,2013-02-03 23:22:00,
2013-02-03 15:27:00,69.1,47.5,30.08,SW,232,0.0,7.0,46,0.00,,,0.00,meteohub,2013-02-03 23:27:00,
2013-02-03 15:32:00,68.7,47.7,30.07,SSW,207,0.0,7.0,47,0.00,,,0.00,meteohub,2013-02-03 23:32:00,
2013-02-03 15:37:00,68.5,47.5,30.07,SSW,210,0.0,7.0,47,0.00,,,0.00,meteohub,2013-02-03 23:37:00,
2013-02-03 15:42:00,68.4,47.8,30.07,SSW,203,1.0,5.0,48,0.00,,,0.00,meteohub,2013-02-03 23:42:00,
2013-02-03 15:47:00,68.4,47.8,30.07,SSW,201,0.0,4.0,48,0.00,,,0.00,meteohub,2013-02-03 23:47:00,
2013-02-03 15:52:00,68.2,47.1,30.07,SSW,202,0.0,4.0,47,0.00,,,0.00,meteohub,2013-02-03 23:52:00,
2013-02-03 15:57:00,68.0,46.9,30.07,South,169,0.0,4.0,47,0.00,,,0.00,meteohub,2013-02-03 23:57:00,
2013-02-03 16:02:00,67.8,47.5,30.07,South,169,0.0,2.0,48,0.00,,,0.00,meteohub,2013-02-04 00:02:00,
2013-02-03 16:07:00,67.8,46.9,30.07,South,178,0.0,2.0,47,0.00,,,0.00,meteohub,2013-02-04 00:07:00,
2013-02-03 16:12:00,67.6,47.3,30.08,South,178,0.0,2.0,48,0.00,,,0.00,meteohub,2013-02-04 00:12:00,
2013-02-03 16:17:00,67.6,47.3,30.08,South,178,0.0,2.0,48,0.00,,,0.00,meteohub,2013-02-04 00:17:00,
2013-02-03 16:22:00,67.5,47.1,30.08,SW,229,0.0,1.0,48,0.00,,,0.00,meteohub,2013-02-04 00:22:00,
2013-02-03 16:27:00,67.1,46.8,30.08,SW,229,0.0,2.0,48,0.00,,,0.00,meteohub,2013-02-04 00:27:00,
2013-02-03 16:32:00,66.9,46.6,30.08,SW,229,0.0,2.0,48,0.00,,,0.00,meteohub,2013-02-04 00:32:00,
2013-02-03 16:37:00,66.6,46.2,30.08,SW,229,0.0,1.0,48,0.00,,,0.00,meteohub,2013-02-04 00:37:00,
2013-02-03 16:42:00,66.4,46.6,30.08,SW,229,0.0,1.0,49,0.00,,,0.00,meteohub,2013-02-04 00:42:00,
2013-02-03 16:47:00,66.2,46.4,30.08,SW,229,0.0,1.0,49,0.00,,,0.00,meteohub,2013-02-04 00:47:00,
2013-02-03 16:52:00,66.0,46.8,30.08,SW,229,0.0,1.0,50,0.00,,,0.00,meteohub,2013-02-04 00:52:00,
2013-02-03 16:57:00,65.8,46.8,30.08,SW,229,0.0,1.0,50,0.00,,,0.00,meteohub,2013-02-04 00:57:00,
2013-02-03 17:02:00,65.5,46.4,30.08,SW,229,0.0,1.0,50,0.00,,,0.00,meteohub,2013-02-04 01:02:00,
2013-02-03 17:07:00,65.3,46.2,30.08,SW,229,0.0,1.0,50,0.00,,,0.00,meteohub,2013-02-04 01:07:00,
2013-02-03 17:12:00,64.9,46.4,30.08,SW,229,0.0,0.0,51,0.00,,,0.00,meteohub,2013-02-04 01:12:00,
2013-02-03 17:17:00,64.8,46.2,30.08,SW,229,0.0,0.0,51,0.00,,,0.00,meteohub,2013-02-04 01:17:00,
2013-02-03 17:22:00,64.4,45.9,30.08,SW,229,0.0,0.0,51,0.00,,,0.00,meteohub,2013-02-04 01:22:00,
2013-02-03 17:27:00,64.0,46.0,30.08,SW,229,0.0,0.0,52,0.00,,,0.00,meteohub,2013-02-04 01:27:00,
2013-02-03 17:32:00,63.9,46.4,30.08,SW,229,0.0,0.0,53,0.00,,,0.00,meteohub,2013-02-04 01:32:00,
2013-02-03 17:37:00,63.5,46.0,30.08,SW,229,0.0,1.0,53,0.00,,,0.00,meteohub,2013-02-04 01:37:00,
2013-02-03 17:42:00,63.1,45.7,30.08,SW,229,0.0,1.0,53,0.00,,,0.00,meteohub,2013-02-04 01:42:00,
2013-02-03 17:47:00,63.0,46.0,30.08,SW,229,0.0,0.0,54,0.00,,,0.00,meteohub,2013-02-04 01:47:00,
2013-02-03 17:52:00,62.4,46.0,30.08,SW,229,0.0,0.0,55,0.00,,,0.00,meteohub,2013-02-04 01:52:00,
2013-02-03 17:57:00,62.2,45.9,30.08,SW,229,0.0,0.0,55,0.00,,,0.00,meteohub,2013-02-04 01:57:00,
2013-02-03 18:02:00,62.1,46.2,30.09,SW,229,0.0,0.0,56,0.00,,,0.00,meteohub,2013-02-04 02:02:00,
2013-02-03 18:07:00,61.7,46.4,30.09,SW,229,0.0,0.0,57,0.00,,,0.00,meteohub,2013-02-04 02:07:00,
2013-02-03 18:12:00,61.3,46.0,30.09,SW,229,0.0,0.0,57,0.00,,,0.00,meteohub,2013-02-04 02:12:00,
2013-02-03 18:17:00,61.2,46.2,30.09,SW,229,0.0,0.0,58,0.00,,,0.00,meteohub,2013-02-04 02:17:00,
2013-02-03 18:22:00,61.0,46.6,30.09,SW,229,0.0,0.0,59,0.00,,,0.00,meteohub,2013-02-04 02:22:00,
2013-02-03 18:27:00,60.6,46.6,30.09,SW,229,0.0,0.0,60,0.00,,,0.00,meteohub,2013-02-04 02:27:00,
2013-02-03 18:32:00,60.4,46.0,30.09,SW,229,0.0,0.0,59,0.00,,,0.00,meteohub,2013-02-04 02:32:00,
2013-02-03 18:37:00,60.1,45.7,30.09,SW,229,0.0,0.0,59,0.00,,,0.00,meteohub,2013-02-04 02:37:00,
2013-02-03 18:42:00,60.1,46.2,30.09,SW,229,0.0,0.0,60,0.00,,,0.00,meteohub,2013-02-04 02:42:00,
2013-02-03 18:47:00,59.7,45.9,30.09,SW,229,0.0,0.0,60,0.00,,,0.00,meteohub,2013-02-04 02:47:00,
2013-02-03 18:52:00,59.7,45.9,30.09,SW,229,0.0,0.0,60,0.00,,,0.00,meteohub,2013-02-04 02:52:00,
2013-02-03 18:57:00,59.7,45.3,30.09,SW,229,0.0,0.0,59,0.00,,,0.00,meteohub,2013-02-04 02:57:00,
2013-02-03 19:02:00,59.7,45.0,30.09,SW,229,0.0,0.0,58,0.00,,,0.00,meteohub,2013-02-04 03:02:00,
2013-02-03 19:07:00,59.7,45.0,30.09,SW,229,0.0,0.0,58,0.00,,,0.00,meteohub,2013-02-04 03:07:00,
2013-02-03 19:12:00,59.7,44.4,30.09,SW,229,0.0,0.0,57,0.00,,,0.00,meteohub,2013-02-04 03:12:00,
2013-02-03 19:17:00,59.7,44.4,30.09,SW,229,0.0,0.0,57,0.00,,,0.00,meteohub,2013-02-04 03:17:00,
2013-02-03 19:22:00,59.7,44.4,30.09,SW,229,0.0,0.0,57,0.00,,,0.00,meteohub,2013-02-04 03:22:00,
2013-02-03 19:27:00,59.7,44.1,30.10,SW,229,0.0,0.0,56,0.00,,,0.00,meteohub,2013-02-04 03:27:00,
2013-02-03 19:32:00,59.5,44.2,30.10,SW,229,0.0,0.0,57,0.00,,,0.00,meteohub,2013-02-04 03:32:00,
2013-02-03 19:37:00,59.4,44.1,30.10,SW,229,0.0,0.0,57,0.00,,,0.00,meteohub,2013-02-04 03:37:00,
2013-02-03 19:42:00,59.2,44.4,30.10,SW,229,0.0,0.0,58,0.00,,,0.00,meteohub,2013-02-04 03:42:00,
2013-02-03 19:47:00,59.0,44.8,30.10,SW,229,0.0,0.0,59,0.00,,,0.00,meteohub,2013-02-04 03:47:00,
2013-02-03 19:52:00,58.6,44.8,30.10,SW,229,0.0,0.0,60,0.00,,,0.00,meteohub,2013-02-04 03:52:00,
2013-02-03 19:57:00,58.5,44.6,30.10,SW,229,0.0,0.0,60,0.00,,,0.00,meteohub,2013-02-04 03:57:00,
2013-02-03 20:02:00,58.1,44.8,30.11,SW,229,0.0,0.0,61,0.00,,,0.00,meteohub,2013-02-04 04:02:00,
2013-02-03 20:07:00,57.9,45.0,30.10,SW,229,0.0,0.0,62,0.00,,,0.00,meteohub,2013-02-04 04:07:00,
2013-02-03 20:12:00,57.6,44.6,30.10,SW,229,0.0,0.0,62,0.00,,,0.00,meteohub,2013-02-04 04:12:00,
2013-02-03 20:17:00,57.4,44.4,30.10,SW,229,0.0,0.0,62,0.00,,,0.00,meteohub,2013-02-04 04:17:00,
2013-02-03 20:22:00,57.2,44.2,30.11,SW,229,0.0,0.0,62,0.00,,,0.00,meteohub,2013-02-04 04:22:00,
2013-02-03 20:27:00,57.0,44.6,30.11,SW,229,0.0,0.0,63,0.00,,,0.00,meteohub,2013-02-04 04:27:00,
2013-02-03 20:32:00,56.8,44.4,30.11,SW,229,0.0,0.0,63,0.00,,,0.00,meteohub,2013-02-04 04:32:00,
2013-02-03 20:37:00,56.7,44.2,30.11,SW,229,0.0,0.0,63,0.00,,,0.00,meteohub,2013-02-04 04:37:00,
2013-02-03 20:42:00,56.5,44.8,30.11,SW,229,0.0,0.0,65,0.00,,,0.00,meteohub,2013-02-04 04:42:00,
2013-02-03 20:47:00,56.3,45.1,30.11,SW,229,0.0,0.0,66,0.00,,,0.00,meteohub,2013-02-04 04:47:00,
2013-02-03 20:52:00,56.1,45.3,30.11,SW,229,0.0,1.0,67,0.00,,,0.00,meteohub,2013-02-04 04:52:00,
2013-02-03 20:57:00,55.8,45.3,30.11,SW,229,0.0,1.0,68,0.00,,,0.00,meteohub,2013-02-04 04:57:00,
2013-02-03 21:02:00,55.6,45.5,30.11,SW,229,0.0,1.0,69,0.00,,,0.00,meteohub,2013-02-04 05:02:00,
2013-02-03 21:03:00,55.6,45.1,30.11,SW,229,0.0,1.0,68,0.00,,,0.00,meteohub,2013-02-04 05:03:00,
2013-02-03 21:05:00,55.2,45.7,30.11,SW,229,0.0,0.0,70,0.00,,,0.00,meteohub,2013-02-04 05:05:00,
2013-02-03 21:10:00,55.0,45.5,30.11,SW,229,0.0,0.0,70,0.00,,,0.00,meteohub,2013-02-04 05:10:00,
2013-02-03 21:15:00,54.9,45.0,30.12,SW,229,0.0,0.0,69,0.00,,,0.00,meteohub,2013-02-04 05:15:00,
2013-02-03 21:20:00,54.9,45.0,30.12,SW,229,0.0,0.0,69,0.00,,,0.00,meteohub,2013-02-04 05:20:00,
2013-02-03 21:25:00,54.7,44.8,30.12,SW,229,0.0,0.0,69,0.00,,,0.00,meteohub,2013-02-04 05:25:00,
2013-02-03 21:31:00,54.7,45.1,30.12,SW,229,0.0,0.0,70,0.00,,,0.00,meteohub,2013-02-04 05:31:00,
2013-02-03 21:36:00,54.5,45.0,30.12,SW,229,0.0,0.0,70,0.00,,,0.00,meteohub,2013-02-04 05:36:00,
2013-02-03 21:41:00,54.3,44.8,30.12,SW,229,0.0,0.0,70,0.00,,,0.00,meteohub,2013-02-04 05:41:00,
2013-02-03 21:46:00,54.3,44.8,30.12,SW,229,0.0,0.0,70,0.00,,,0.00,meteohub,2013-02-04 05:46:00,
2013-02-03 21:51:00,54.1,44.6,30.12,SW,229,0.0,0.0,70,0.00,,,0.00,meteohub,2013-02-04 05:51:00,
2013-02-03 21:56:00,54.1,45.0,30.12,SW,229,0.0,0.0,71,0.00,,,0.00,meteohub,2013-02-04 05:56:00,
2013-02-03 22:01:00,54.1,45.0,30.12,SW,229,0.0,0.0,71,0.00,,,0.00,meteohub,2013-02-04 06:01:00,
2013-02-03 22:06:00,54.0,44.8,30.12,SW,229,0.0,0.0,71,0.00,,,0.00,meteohub,2013-02-04 06:06:00,
2013-02-03 22:11:00,53.8,45.0,30.12,SW,229,0.0,0.0,72,0.00,,,0.00,meteohub,2013-02-04 06:11:00,
2013-02-03 22:16:00,53.4,45.0,30.12,SW,229,0.0,0.0,73,0.00,,,0.00,meteohub,2013-02-04 06:16:00,
2013-02-03 22:21:00,53.4,45.3,30.12,SW,229,0.0,0.0,74,0.00,,,0.00,meteohub,2013-02-04 06:21:00,
2013-02-03 22:26:00,53.2,45.1,30.12,SW,229,0.0,0.0,74,0.00,,,0.00,meteohub,2013-02-04 06:26:00,
2013-02-03 22:31:00,53.1,45.3,30.12,SW,229,0.0,0.0,75,0.00,,,0.00,meteohub,2013-02-04 06:31:00,
2013-02-03 22:36:00,52.9,45.1,30.12,SW,229,0.0,0.0,75,0.00,,,0.00,meteohub,2013-02-04 06:36:00,
2013-02-03 22:41:00,52.7,45.3,30.12,SW,229,0.0,0.0,76,0.00,,,0.00,meteohub,2013-02-04 06:41:00,
2013-02-03 22:47:00,52.5,45.1,30.11,SW,229,0.0,0.0,76,0.00,,,0.00,meteohub,2013-02-04 06:47:00,
2013-02-03 22:52:00,52.5,45.1,30.11,SW,229,0.0,0.0,76,0.00,,,0.00,meteohub,2013-02-04 06:52:00,
2013-02-03 22:57:00,52.3,45.3,30.11,SW,229,0.0,0.0,77,0.00,,,0.00,meteohub,2013-02-04 06:57:00,
2013-02-03 23:02:00,52.2,45.1,30.11,SW,229,0.0,0.0,77,0.00,,,0.00,meteohub,2013-02-04 07:02:00,
2013-02-03 23:07:00,52.2,45.5,30.11,SW,229,0.0,0.0,78,0.00,,,0.00,meteohub,2013-02-04 07:07:00,
2013-02-03 23:12:00,52.0,45.3,30.12,SW,229,0.0,0.0,78,0.00,,,0.00,meteohub,2013-02-04 07:12:00,
2013-02-03 23:17:00,51.6,45.0,30.12,SW,229,0.0,0.0,78,0.00,,,0.00,meteohub,2013-02-04 07:17:00,
2013-02-03 23:22:00,51.6,45.3,30.12,SW,229,0.0,0.0,79,0.00,,,0.00,meteohub,2013-02-04 07:22:00,
2013-02-03 23:27:00,51.4,45.1,30.12,SW,229,0.0,0.0,79,0.00,,,0.00,meteohub,2013-02-04 07:27:00,
2013-02-03 23:32:00,51.4,45.1,30.12,SW,229,0.0,0.0,79,0.00,,,0.00,meteohub,2013-02-04 07:32:00,
2013-02-03 23:37:00,51.3,45.3,30.12,SW,229,0.0,0.0,80,0.00,,,0.00,meteohub,2013-02-04 07:37:00,
2013-02-03 23:42:00,51.3,45.3,30.12,SW,229,0.0,0.0,80,0.00,,,0.00,meteohub,2013-02-04 07:42:00,
2013-02-03 23:47:00,51.3,45.3,30.12,SW,229,0.0,0.0,80,0.00,,,0.00,meteohub,2013-02-04 07:47:00,
2013-02-03 23:52:00,51.3,45.7,30.12,SW,229,0.0,0.0,81,0.00,,,0.00,meteohub,2013-02-04 07:52:00,
2013-02-03 23:57:00,51.1,45.5,30.12,SW,229,0.0,0.0,81,0.00,,,0.00,meteohub,2013-02-04 07:57:00,